| time (UTC) | temp C | wind direction | speed KPH | gust KPH | rain 1hr cm | rain 24hr cm | rain mn cm | humidity % | barometer mb |
| 20260507003012 | 9 | 109 | 6.4 | 12.9 | 0.00 | 0.00 | 0.00 | 1 | 1014.0 |
| 20260507001512 | 9 | 102 | 4.8 | 11.3 | 0.00 | 0.00 | 0.00 | 1 | 1013.9 |
| 20260507000011 | 9 | 107 | 4.8 | 9.7 | 0.00 | 0.00 | 0.00 | 1 | 1013.9 |
| 20260506233012 | 9 | 104 | 8.0 | 12.9 | 0.00 | 0.00 | 0.00 | 1 | 1013.8 |
| 20260506231511 | 10 | 99 | 4.8 | 11.3 | 0.00 | 0.00 | 0.00 | 1 | 1014.1 |
| 20260506223012 | 10 | 107 | 8.0 | 16.1 | 0.00 | 0.00 | 0.00 | 10 | 1013.9 |
| 20260506221512 | 11 | 107 | 11.3 | 20.9 | 0.00 | 0.00 | 0.00 | 18 | 1014.0 |
| 20260506220013 | 11 | 106 | 8.0 | 20.9 | 0.00 | 0.00 | 0.00 | 19 | 1014.0 |
| 20260506214512 | 11 | 103 | 9.7 | 19.3 | 0.00 | 0.00 | 0.00 | 17 | 1014.0 |
| 20260506213011 | 11 | 103 | 8.0 | 20.9 | 0.00 | 0.00 | 0.00 | 20 | 1013.9 |
| 20260506211511 | 12 | 106 | 9.7 | 19.3 | 0.00 | 0.00 | 0.00 | 27 | 1013.8 |
| 20260506210012 | 12 | 94 | 6.4 | 17.7 | 0.00 | 0.00 | 0.00 | 34 | 1013.8 |
| 20260506204511 | 12 | 100 | 4.8 | 12.9 | 0.00 | 0.00 | 0.00 | 37 | 1013.7 |
| 20260506203012 | 13 | 86 | 4.8 | 11.3 | 0.00 | 0.00 | 0.00 | 47 | 1013.5 |
| 20260506201512 | 13 | 81 | 4.8 | 12.9 | 0.00 | 0.00 | 0.00 | 60 | 1013.4 |
| 20260506200012 | 15 | 77 | 8.0 | 17.7 | 0.00 | 0.00 | 0.00 | 53 | 1013.4 |
| 20260506194511 | 15 | 66 | 6.4 | 16.1 | 0.00 | 0.00 | 0.00 | 45 | 1013.0 |
| 20260506193011 | 15 | 67 | 8.0 | 19.3 | 0.00 | 0.00 | 0.00 | 45 | 1013.0 |
| 20260506191512 | 15 | 66 | 8.0 | 16.1 | 0.00 | 0.00 | 0.00 | 45 | 1013.0 |
| 20260506190011 | 16 | 71 | 6.4 | 16.1 | 0.00 | 0.00 | 0.00 | 43 | 1012.9 |
| 20260506184512 | 16 | 72 | 6.4 | 14.5 | 0.00 | 0.00 | 0.00 | 41 | 1013.0 |
| 20260506183012 | 16 | 67 | 8.0 | 16.1 | 0.00 | 0.00 | 0.00 | 41 | 1012.9 |
| 20260506181512 | 17 | 66 | 8.0 | 14.5 | 0.00 | 0.00 | 0.00 | 39 | 1012.9 |
| 20260506180011 | 17 | 68 | 6.4 | 14.5 | 0.00 | 0.00 | 0.00 | 37 | 1013.0 |
| 20260506174512 | 17 | 44 | 8.0 | 14.5 | 0.00 | 0.00 | 0.00 | 36 | 1012.9 |
| 20260506173012 | 17 | 43 | 9.7 | 19.3 | 0.00 | 0.00 | 0.00 | 36 | 1012.9 |
| 20260506171512 | 18 | 359 | 3.2 | 11.3 | 0.00 | 0.00 | 0.00 | 33 | 1013.0 |
| 20260506170011 | 18 | 214 | 3.2 | 11.3 | 0.00 | 0.00 | 0.00 | 25 | 1013.1 |
| 20260506164512 | 18 | 250 | 6.4 | 11.3 | 0.00 | 0.00 | 0.00 | 26 | 1013.1 |
| 20260506163011 | 19 | 151 | 8.0 | 14.5 | 0.00 | 0.00 | 0.00 | 23 | 1013.1 |
| 20260506161512 | 19 | 205 | 3.2 | 27.4 | 0.00 | 0.00 | 0.00 | 23 | 1013.0 |
| 20260506160012 | 19 | 169 | 3.2 | 11.3 | 0.00 | 0.00 | 0.00 | 20 | 1013.1 |
| 20260506154511 | 19 | 216 | 6.4 | 16.1 | 0.00 | 0.00 | 0.00 | 21 | 1013.3 |
| 20260506153012 | 19 | 116 | 9.7 | 20.9 | 0.00 | 0.00 | 0.00 | 20 | 1013.3 |
| 20260506150011 | 19 | 127 | 3.2 | 14.5 | 0.00 | 0.00 | 0.00 | 21 | 1013.4 |
| 20260506144511 | 19 | 158 | 4.8 | 12.9 | 0.00 | 0.00 | 0.00 | 22 | 1013.6 |
| 20260506143012 | 19 | 31 | 3.2 | 9.7 | 0.00 | 0.00 | 0.00 | 23 | 1013.7 |
| 20260506141512 | 18 | 192 | 4.8 | 9.7 | 0.00 | 0.00 | 0.00 | 23 | 1013.9 |
| 20260506134512 | 18 | 217 | 6.4 | 19.3 | 0.00 | 0.00 | 0.00 | 27 | 1014.2 |
| 20260506133012 | 18 | 234 | 6.4 | 22.5 | 0.00 | 0.00 | 0.00 | 26 | 1014.3 |
| 20260506131512 | 18 | 192 | 6.4 | 17.7 | 0.00 | 0.00 | 0.00 | 25 | 1014.3 |
| 20260506130012 | 17 | 258 | 3.2 | 8.0 | 0.00 | 0.00 | 0.00 | 24 | 1014.5 |
| 20260506124512 | 17 | 163 | 6.4 | 35.4 | 0.00 | 0.00 | 0.00 | 27 | 1014.7 |
| 20260506123012 | 17 | 221 | 6.4 | 14.5 | 0.00 | 0.00 | 0.00 | 30 | 1014.7 |
| 20260506121512 | 16 | 234 | 4.8 | 16.1 | 0.00 | 0.00 | 0.00 | 33 | 1015.0 |
| 20260506120012 | 16 | 203 | 4.8 | 22.5 | 0.00 | 0.00 | 0.00 | 33 | 1014.9 |
| 20260506113012 | 16 | 244 | 4.8 | 11.3 | 0.00 | 0.00 | 0.00 | 37 | 1015.3 |
| 20260506111512 | 16 | 164 | 3.2 | 11.3 | 0.00 | 0.00 | 0.00 | 37 | 1015.4 |
| 20260506110012 | 15 | 238 | 3.2 | 9.7 | 0.00 | 0.00 | 0.00 | 36 | 1015.5 |
| 20260506104512 | 15 | 243 | 3.2 | 14.5 | 0.00 | 0.00 | 0.00 | 36 | 1015.6 |
| 20260506103012 | 15 | 70 | 1.6 | 14.5 | 0.00 | 0.00 | 0.00 | 35 | 1015.5 |
| 20260506101512 | 15 | 150 | 3.2 | 11.3 | 0.00 | 0.00 | 0.00 | 36 | 1015.8 |
| 20260506100012 | 14 | 247 | 1.6 | 9.7 | 0.00 | 0.00 | 0.00 | 40 | 1015.7 |
| 20260506094512 | 15 | 146 | 3.2 | 4.8 | 0.00 | 0.00 | 0.00 | 38 | 1015.8 |
| 20260506093012 | 15 | 159 | 3.2 | 12.9 | 0.00 | 0.00 | 0.00 | 39 | 1015.7 |
| 20260506091512 | 14 | 28 | 1.6 | 6.4 | 0.00 | 0.00 | 0.00 | 41 | 1015.7 |
| 20260506084512 | 13 | 130 | 1.6 | 9.7 | 0.00 | 0.00 | 0.00 | 42 | 1015.4 |
| 20260506083012 | 13 | 226 | 1.6 | 6.4 | 0.00 | 0.00 | 0.00 | 43 | 1015.4 |
| 20260506081512 | 13 | 175 | 0.0 | 4.8 | 0.00 | 0.00 | 0.00 | 47 | 1015.4 |
| 20260506073012 | 12 | 115 | 0.0 | 3.2 | 0.00 | 0.00 | 0.00 | 53 | 1015.6 |
| 20260506061512 | 7 | 0 | 0.0 | 0.0 | 0.00 | 0.00 | 0.00 | 63 | 1015.1 |
| 20260506044512 | 6 | 0 | 0.0 | 0.0 | 0.00 | 0.00 | 0.00 | 62 | 1014.5 |
| 20260506041512 | 7 | 0 | 0.0 | 0.0 | 0.00 | 0.00 | 0.00 | 62 | 1014.9 |
| 20260506034512 | 7 | 241 | 0.0 | 1.6 | 0.00 | 0.00 | 0.00 | 62 | 1015.0 |
| 20260506033011 | 7 | 0 | 0.0 | 0.0 | 0.00 | 0.00 | 0.00 | 62 | 1015.2 |
| 20260506030012 | 7 | 0 | 0.0 | 0.0 | 0.00 | 0.00 | 0.00 | 62 | 1015.3 |
| 20260506024513 | 7 | 0 | 0.0 | 0.0 | 0.00 | 0.00 | 0.00 | 62 | 1015.2 |
| 20260506021512 | 7 | 0 | 0.0 | 0.0 | 0.00 | 0.00 | 0.00 | 61 | 1015.2 |
| 20260506020012 | 6 | 0 | 0.0 | 0.0 | 0.00 | 0.00 | 0.00 | 59 | 1015.3 |
| 20260506014511 | 6 | 0 | 0.0 | 0.0 | 0.00 | 0.00 | 0.00 | 61 | 1015.3 |
| 20260506013011 | 7 | 0 | 0.0 | 0.0 | 0.00 | 0.00 | 0.00 | 62 | 1015.4 |
| 20260506011512 | 7 | 0 | 0.0 | 0.0 | 0.00 | 0.00 | 0.00 | 62 | 1015.5 |
| 20260506010012 | 7 | 0 | 0.0 | 0.0 | 0.00 | 0.00 | 0.00 | 63 | 1015.7 |
| 20260506004511 | 10 | 290 | 3.2 | 4.8 | 0.00 | 0.00 | 0.00 | 58 | 1015.7 |